Hourly Weather Newcastle

Today, 15 August, Saturday

Time Temperature Precipitation Wind Pressure Humidity
00:00 +15°C° 0 mm 2 mps 749 mmHg 94%
01:00 +15°C° 0 mm 2 mps 749 mmHg 94%
02:00 +14°C° 0 mm 2 mps 749 mmHg 94%
03:00 +14°C° 0 mm 2 mps 748 mmHg 94%
04:00 +14°C° 0 mm 2 mps 748 mmHg 94%
05:00 +14°C° 0 mm 2 mps 749 mmHg 93%
06:00 +14°C° 0 mm 2 mps 749 mmHg 93%
07:00 +16°C° 0 mm 3 mps 749 mmHg 89%
08:00 +17°C° 0 mm 3 mps 749 mmHg 85%
09:00 +18°C° 0 mm 4 mps 749 mmHg 81%
10:00 +19°C° 0 mm 4 mps 749 mmHg 77%
11:00 +20°C° 0 mm 4 mps 749 mmHg 73%
12:00 +21°C° 0 mm 4 mps 749 mmHg 69%
13:00 +22°C° 0 mm 4 mps 749 mmHg 68%
14:00 +22°C° 0 mm 4 mps 749 mmHg 67%
15:00 +23°C° 0 mm 4 mps 748 mmHg 66%
16:00 +22°C° 0 mm 4 mps 748 mmHg 69%
17:00 +21°C° 0 mm 4 mps 748 mmHg 73%
18:00 +20°C° 0 mm 4 mps 748 mmHg 77%
19:00 +19°C° 0 mm 4 mps 748 mmHg 79%
20:00 +18°C° 0 mm 4 mps 748 mmHg 81%
21:00 +17°C° 0 mm 4 mps 748 mmHg 83%
22:00 +15°C° 0 mm 4 mps 748 mmHg 84%
23:00 +15°C° 0 mm 4 mps 748 mmHg 84%

Tomorrow, 16 August, Sunday

Time Temperature Precipitation Wind Pressure Humidity
00:00 +15°C° 0 mm 4 mps 748 mmHg 84%
01:00 +15°C° 0 mm 4 mps 747 mmHg 84%
02:00 +15°C° 0 mm 4 mps 747 mmHg 84%
03:00 +15°C° 0 mm 4 mps 747 mmHg 84%
04:00 +15°C° 0 mm 4 mps 747 mmHg 85%
05:00 +14°C° 0 mm 4 mps 746 mmHg 85%
06:00 +14°C° 0 mm 4 mps 746 mmHg 86%
07:00 +15°C° 0 mm 4 mps 746 mmHg 86%
08:00 +15°C° 0 mm 4 mps 746 mmHg 86%
09:00 +15°C° 0 mm 4 mps 746 mmHg 86%
10:00 +15°C° 0 mm 4 mps 746 mmHg 86%
11:00 +17°C° 0 mm 4 mps 746 mmHg 85%
12:00 +17°C° 0 mm 4 mps 746 mmHg 84%
13:00 +17°C° 0 mm 4 mps 745 mmHg 84%
14:00 +18°C° 0 mm 4 mps 745 mmHg 83%
15:00 +18°C° 0 mm 4 mps 745 mmHg 83%
16:00 +18°C° 0 mm 4 mps 744 mmHg 83%
17:00 +17°C° 0 mm 4 mps 744 mmHg 84%
18:00 +17°C° 0 mm 4 mps 744 mmHg 84%
19:00 +17°C° 0.8 mm 4 mps 743 mmHg 87%
20:00 +15°C° 0.8 mm 4 mps 743 mmHg 90%
21:00 +15°C° 0.8 mm 4 mps 743 mmHg 93%
22:00 +16°C° 0.2 mm 3 mps 743 mmHg 93%
23:00 +16°C° 0.2 mm 3 mps 743 mmHg 94%

Day after tomorrow, 17 August, Monday

Time Temperature Precipitation Wind Pressure Humidity
00:00 +16°C° 0.2 mm 3 mps 742 mmHg 94%
01:00 +14°C° 0 mm 3 mps 742 mmHg 94%
02:00 +15°C° 0 mm 2 mps 742 mmHg 95%
03:00 +15°C° 0 mm 2 mps 742 mmHg 95%
04:00 +15°C° 0 mm 2 mps 742 mmHg 95%
05:00 +15°C° 0 mm 1 mps 741 mmHg 95%
06:00 +15°C° 0 mm 1 mps 741 mmHg 95%
07:00 +16°C° 0 mm 1 mps 741 mmHg 93%
08:00 +18°C° 0 mm 1 mps 741 mmHg 91%
09:00 +18°C° 0 mm 1 mps 741 mmHg 89%
10:00 +19°C° 0.3 mm 1 mps 741 mmHg 85%
11:00 +20°C° 0.3 mm 1 mps 741 mmHg 80%
12:00 +21°C° 0.3 mm 1 mps 741 mmHg 76%
13:00 +22°C° 1.3 mm 1 mps 741 mmHg 75%
14:00 +22°C° 1.3 mm 1 mps 740 mmHg 74%
15:00 +22°C° 1.3 mm 1 mps 740 mmHg 73%
16:00 +22°C° 1.6 mm 1 mps 740 mmHg 77%
17:00 +21°C° 1.6 mm 1 mps 740 mmHg 80%
18:00 +21°C° 1.6 mm 1 mps 740 mmHg 84%
19:00 +20°C° 1 mm 1 mps 740 mmHg 85%
20:00 +19°C° 1 mm 1 mps 740 mmHg 87%
21:00 +18°C° 1 mm 1 mps 740 mmHg 89%
22:00 +18°C° 0.4 mm 1 mps 740 mmHg 90%
23:00 +16°C° 0.4 mm 1 mps 740 mmHg 91%

18 August, Tuesday

Time Temperature Precipitation Wind Pressure Humidity
00:00 +16°C° 0.4 mm 1 mps 740 mmHg 92%
01:00 +16°C° 0.2 mm 1 mps 740 mmHg 93%
02:00 +15°C° 0.2 mm 2 mps 740 mmHg 94%
03:00 +15°C° 0.2 mm 2 mps 740 mmHg 95%
04:00 +15°C° 0 mm 2 mps 740 mmHg 95%
05:00 +15°C° 0 mm 2 mps 740 mmHg 95%
06:00 +15°C° 0 mm 2 mps 740 mmHg 95%
07:00 +16°C° 0 mm 2 mps 741 mmHg 93%
08:00 +17°C° 0 mm 2 mps 741 mmHg 90%
09:00 +17°C° 0 mm 3 mps 741 mmHg 87%
10:00 +18°C° 0.1 mm 3 mps 741 mmHg 83%
11:00 +19°C° 0.1 mm 2 mps 741 mmHg 79%
12:00 +20°C° 0.1 mm 2 mps 741 mmHg 76%
13:00 +20°C° 0.5 mm 3 mps 741 mmHg 76%
14:00 +20°C° 0.5 mm 3 mps 741 mmHg 76%
15:00 +20°C° 0.5 mm 4 mps 741 mmHg 77%
16:00 +19°C° 0.3 mm 3 mps 741 mmHg 80%
17:00 +19°C° 0.3 mm 3 mps 741 mmHg 83%
18:00 +18°C° 0.3 mm 3 mps 741 mmHg 86%
19:00 +17°C° 0 mm 2 mps 742 mmHg 88%
20:00 +16°C° 0 mm 2 mps 742 mmHg 91%
21:00 +15°C° 0 mm 2 mps 742 mmHg 94%
22:00 +15°C° 0 mm 2 mps 742 mmHg 94%
23:00 +14°C° 0 mm 2 mps 742 mmHg 95%

19 August, Wednesday

Time Temperature Precipitation Wind Pressure Humidity
00:00 +14°C° 0 mm 2 mps 742 mmHg 95%
01:00 +14°C° 0 mm 2 mps 742 mmHg 95%
02:00 +13°C° 0 mm 3 mps 742 mmHg 95%
03:00 +13°C° 0 mm 3 mps 742 mmHg 95%
04:00 +13°C° 0 mm 3 mps 742 mmHg 95%
05:00 +12°C° 0 mm 3 mps 742 mmHg 95%
06:00 +12°C° 0 mm 3 mps 742 mmHg 95%
07:00 +14°C° 0 mm 3 mps 742 mmHg 92%
08:00 +16°C° 0 mm 3 mps 742 mmHg 88%
09:00 +17°C° 0 mm 4 mps 741 mmHg 84%
10:00 +18°C° 0 mm 4 mps 741 mmHg 81%
11:00 +19°C° 0 mm 4 mps 741 mmHg 78%
12:00 +20°C° 0 mm 5 mps 741 mmHg 75%
13:00 +20°C° 0.1 mm 5 mps 740 mmHg 72%
14:00 +21°C° 0.1 mm 5 mps 740 mmHg 70%
15:00 +21°C° 0.1 mm 5 mps 739 mmHg 68%
16:00 +20°C° 0.2 mm 5 mps 739 mmHg 74%
17:00 +19°C° 0.2 mm 5 mps 738 mmHg 80%
18:00 +16°C° 0.2 mm 5 mps 738 mmHg 86%
19:00 +16°C° 1.6 mm 6 mps 737 mmHg 89%
20:00 +15°C° 1.6 mm 7 mps 736 mmHg 92%
21:00 +15°C° 1.6 mm 8 mps 736 mmHg 95%
22:00 +16°C° 1.1 mm 8 mps 735 mmHg 94%
23:00 +16°C° 1.1 mm 7 mps 735 mmHg 94%

20 August, Thursday

Time Temperature Precipitation Wind Pressure Humidity
00:00 +17°C° 1.1 mm 7 mps 734 mmHg 94%
01:00 +17°C° 0.1 mm 7 mps 734 mmHg 94%
02:00 +17°C° 0.1 mm 6 mps 734 mmHg 94%
03:00 +17°C° 0.1 mm 6 mps 734 mmHg 94%
04:00 +15°C° 0 mm 5 mps 734 mmHg 93%
05:00 +13°C° 0 mm 5 mps 735 mmHg 92%
06:00 +12°C° 0 mm 4 mps 735 mmHg 91%
07:00 +13°C° 0 mm 4 mps 735 mmHg 87%
08:00 +14°C° 0 mm 4 mps 736 mmHg 82%
09:00 +15°C° 0 mm 4 mps 736 mmHg 77%
10:00 +16°C° 0 mm 5 mps 736 mmHg 73%
11:00 +19°C° 0 mm 5 mps 736 mmHg 69%
12:00 +20°C° 0 mm 5 mps 736 mmHg 66%
13:00 +20°C° 0 mm 5 mps 736 mmHg 67%
14:00 +20°C° 0 mm 5 mps 735 mmHg 69%
15:00 +20°C° 0 mm 5 mps 734 mmHg 70%
16:00 +20°C° 0.3 mm 5 mps 734 mmHg 73%
17:00 +19°C° 0.3 mm 5 mps 734 mmHg 76%
18:00 +19°C° 0.3 mm 6 mps 733 mmHg 80%
19:00 +17°C° 0 mm 6 mps 733 mmHg 82%
20:00 +16°C° 0 mm 5 mps 733 mmHg 84%
21:00 +14°C° 0 mm 5 mps 733 mmHg 87%
22:00 +15°C° 0.1 mm 6 mps 733 mmHg 86%
23:00 +15°C° 0.1 mm 7 mps 732 mmHg 85%
Show more